Weather History for Abbeville, LA

Change the Weather History Date:

Tuesday, July 2, 2013

  Actual Average (KARA) Record (KARA)
Temperature  
Mean Temperature 79 °F 82 °F  
Max Temperature 90 °F 91 °F 100 °F (2011)
Min Temperature 68 °F 73 °F 63 °F (1961)
Degree Days  
Heating Degree Days 0 0  
Month to date heating degree days 0  
Since 1 June heating degree days 0  
Since 1 July heating degree days 0  
Cooling Degree Days 14 17  
Month to date cooling degree days 34  
Year to date cooling degree days 1075  
Since 1 June cooling degree days 505  
Growing Degree Days 29 (Base 50)    
Moisture  
Dew Point 61 °F    
Average Humidity 58    
Maximum Humidity 90    
Minimum Humidity 26    
Precipitation  
Precipitation 0.00 in 0.21 in 3.30 in (1961)
Month to date precipitation 0.42  
Year to date precipitation 29.55  
Sea Level Pressure  
Sea Level Pressure 29.97 in    
Wind  
Wind Speed 2 mph (NNE)    
Max Wind Speed 8 mph    
Max Gust Speed -    
Visibility 10 miles    
Events      
T = Trace of Precipitation, MM = Missing Value Source: NWS Daily Summary

Daily Weather History Graph

Daily Weather History Graph

Search for Another Location

Airport:

Trip Planner

Search our weather history database for the weather conditions in past years. The results will help you decide how hot, cold, wet, or windy it might be!

Date:

Astronomy

Jul. 02, 2013 Rise Set
Actual Time 6:11 AM CDT 8:13 PM CDT
Civil Twilight 5:44 AM CDT 8:40 PM CDT
Nautical Twilight 5:10 AM CDT 9:13 PM CDT
Astronomical Twilight 4:35 AM CDT 9:49 PM CDT
Moon 2:02 AM CDT (7/2) 3:37 PM CDT (7/2)
Length of Visible Light 14h 56m
Length of Day
14h 02m
Waning Crescent, 26% of the Moon is Illuminated
Jul 2
Waning Crescent
Jul 8
New
Jul 15
First Quarter
Jul 22
Full
Jul 29
Last Quarter

Hourly Weather History & Observations

Time (CDT) Temp. Heat Index Dew Point Humidity Pressure Visibility Wind Dir Wind Speed Gust Speed Precip Events Conditions
12:15 AM 73.0 °F - 68.2 °F 85% 29.94 in 10.0 mi Calm Calm - N/A   Clear
12:35 AM 72.5 °F - 68.0 °F 86% 29.94 in 10.0 mi Calm Calm - N/A   Clear
12:55 AM 72.5 °F - 66.9 °F 83% 29.94 in 10.0 mi Calm Calm - N/A   Clear
1:15 AM 72.0 °F - 67.3 °F 85% 29.93 in 10.0 mi Calm Calm - N/A   Clear
1:35 AM 72.3 °F - 67.1 °F 84% 29.93 in 10.0 mi Calm Calm - N/A   Clear
1:55 AM 71.2 °F - 67.1 °F 87% 29.93 in 10.0 mi Calm Calm - N/A   Clear
2:15 AM 70.9 °F - 66.7 °F 87% 29.93 in 10.0 mi NW 3.5 mph - N/A   Clear
2:35 AM 70.7 °F - 66.6 °F 87% 29.92 in 10.0 mi Calm Calm - N/A   Clear
2:55 AM 70.7 °F - 66.2 °F 86% 29.92 in 10.0 mi Calm Calm - N/A   Clear
3:15 AM 71.1 °F - 66.2 °F 85% 29.92 in 10.0 mi Calm Calm - N/A   Clear
3:35 AM 69.6 °F - 64.8 °F 84% 29.93 in 10.0 mi Calm Calm - N/A   Clear
3:55 AM 70.0 °F - 65.8 °F 87% 29.93 in 10.0 mi Calm Calm - N/A   Clear
4:15 AM 70.2 °F - 64.8 °F 83% 29.94 in 10.0 mi Calm Calm - N/A   Clear
4:35 AM 70.3 °F - 65.5 °F 85% 29.94 in 10.0 mi Calm Calm - N/A   Clear
4:55 AM 70.2 °F - 65.7 °F 86% 29.94 in 10.0 mi Calm Calm - N/A   Clear
5:15 AM 69.8 °F - 66.2 °F 88% 29.95 in 10.0 mi Calm Calm - N/A   Clear
5:35 AM 69.4 °F - 65.7 °F 88% 29.95 in 10.0 mi Calm Calm - N/A   Clear
5:55 AM 68.4 °F - 65.3 °F 90% 29.96 in 10.0 mi Calm Calm - N/A   Clear
6:15 AM 68.9 °F - 65.7 °F 89% 29.96 in 10.0 mi Calm Calm - N/A   Clear
6:35 AM 68.9 °F - 65.7 °F 89% 29.97 in 10.0 mi Calm Calm - N/A   Clear
6:55 AM 69.3 °F - 66.0 °F 89% 29.98 in 10.0 mi Calm Calm - N/A   Clear
7:15 AM 71.1 °F - 67.5 °F 88% 29.98 in 10.0 mi Calm Calm - N/A   Clear
7:35 AM 73.4 °F - 66.4 °F 79% 29.98 in 10.0 mi Calm Calm - N/A   Clear
7:55 AM 74.7 °F - 66.0 °F 74% 29.98 in 10.0 mi Calm Calm - N/A   Clear
8:15 AM 75.9 °F - 67.1 °F 74% 29.99 in 10.0 mi Calm Calm - N/A   Clear
8:35 AM 77.7 °F - 66.9 °F 69% 29.99 in 10.0 mi NE 3.5 mph - N/A   Clear
8:55 AM 79.0 °F - 65.1 °F 62% 29.99 in 10.0 mi NE 3.5 mph - N/A   Clear
9:15 AM 80.4 °F 82.3 °F 65.3 °F 60% 29.99 in 10.0 mi Calm Calm - N/A   Clear
9:35 AM 81.7 °F 83.2 °F 64.2 °F 55% 29.99 in 10.0 mi NNE 3.5 mph - N/A   Clear
9:55 AM 82.8 °F 83.8 °F 62.8 °F 51% 30.00 in 10.0 mi NNE 4.6 mph - N/A   Clear
10:15 AM 83.8 °F 84.7 °F 62.6 °F 49% 30.00 in 10.0 mi North 5.8 mph - N/A   Clear
10:35 AM 84.7 °F 84.6 °F 59.9 °F 43% 30.00 in 10.0 mi NNE 6.9 mph - N/A   Clear
10:55 AM 85.3 °F 84.6 °F 58.1 °F 40% 30.00 in 10.0 mi ENE 3.5 mph - N/A   Clear
11:15 AM 85.5 °F 84.8 °F 58.8 °F 40% 30.00 in 10.0 mi Calm Calm - N/A   Scattered Clouds
11:35 AM 86.5 °F 85.4 °F 57.2 °F 37% 29.99 in 10.0 mi North 5.8 mph - N/A   Scattered Clouds
11:55 AM 87.4 °F 86.3 °F 57.6 °F 36% 29.99 in 10.0 mi NNE 4.6 mph - N/A   Scattered Clouds
12:15 PM 86.9 °F 85.5 °F 55.9 °F 35% 29.99 in 10.0 mi NNW 5.8 mph - N/A   Scattered Clouds
12:35 PM 87.8 °F 86.1 °F 55.2 °F 33% 29.99 in 10.0 mi North 4.6 mph - N/A   Scattered Clouds
12:55 PM 88.5 °F 86.9 °F 55.8 °F 33% 29.99 in 10.0 mi NNW 4.6 mph - N/A   Scattered Clouds
1:15 PM 86.2 °F 85.2 °F 57.6 °F 38% 29.98 in 10.0 mi NNW 4.6 mph - N/A   Mostly Cloudy
1:35 PM 88.9 °F 87.1 °F 55.8 °F 32% 29.98 in 10.0 mi NNE 3.5 mph - N/A   Mostly Cloudy
1:55 PM 88.3 °F 86.7 °F 55.9 °F 33% 29.98 in 10.0 mi North 6.9 mph - N/A   Scattered Clouds
2:15 PM 89.4 °F 87.3 °F 53.8 °F 30% 29.97 in 10.0 mi North 3.5 mph - N/A   Scattered Clouds
2:35 PM 87.1 °F 85.7 °F 56.5 °F 35% 29.97 in 10.0 mi NNE 4.6 mph - N/A   Mostly Cloudy
2:55 PM 88.2 °F 86.7 °F 56.5 °F 34% 29.96 in 10.0 mi North 3.5 mph - N/A   Mostly Cloudy
3:15 PM 87.3 °F 85.7 °F 55.6 °F 34% 29.96 in 10.0 mi NNE 5.8 mph - N/A   Mostly Cloudy
3:35 PM 89.1 °F 87.1 °F 55.0 °F 31% 29.95 in 10.0 mi North 5.8 mph - N/A   Mostly Cloudy
3:55 PM 90.0 °F 88.1 °F 55.9 °F 31% 29.95 in 10.0 mi North 6.9 mph - N/A   Scattered Clouds
4:15 PM 88.9 °F 87.3 °F 55.9 °F 33% 29.95 in 10.0 mi NE 4.6 mph - N/A   Mostly Cloudy
4:35 PM 86.7 °F 85.1 °F 55.6 °F 34% 29.94 in 10.0 mi NE 4.6 mph - N/A   Mostly Cloudy
4:55 PM 88.9 °F 87.1 °F 55.2 °F 32% 29.94 in 10.0 mi ENE 4.6 mph - N/A   Overcast
5:15 PM 87.3 °F 86.3 °F 58.3 °F 37% 29.94 in 10.0 mi ENE 4.6 mph - N/A   Overcast
5:35 PM 89.4 °F 87.5 °F 55.0 °F 31% 29.94 in 10.0 mi ENE 4.6 mph - N/A   Overcast
5:55 PM 88.5 °F 86.7 °F 55.0 °F 32% 29.94 in 10.0 mi NE 3.5 mph - N/A   Overcast
6:15 PM 88.3 °F - 50.4 °F 27% 29.94 in 10.0 mi NE 8.1 mph - N/A   Scattered Clouds
6:35 PM 88.0 °F - 48.9 °F 26% 29.95 in 10.0 mi NE 4.6 mph - N/A   Clear
6:55 PM 87.1 °F - 51.1 °F 29% 29.95 in 10.0 mi NE 4.6 mph - N/A   Clear
7:15 PM 86.0 °F 84.3 °F 54.7 °F 34% 29.96 in 10.0 mi Calm Calm - N/A   Clear
7:35 PM 84.7 °F 84.2 °F 58.6 °F 41% 29.96 in 10.0 mi NE 3.5 mph - N/A   Clear
7:55 PM 82.4 °F 82.5 °F 59.2 °F 45% 29.97 in 10.0 mi NNE 3.5 mph - N/A   Clear
8:15 PM 81.1 °F 81.0 °F 56.1 °F 42% 29.96 in 10.0 mi North 3.5 mph - N/A   Clear
8:35 PM 78.8 °F - 59.0 °F 51% 29.97 in 10.0 mi NNE 3.5 mph - N/A   Clear
8:55 PM 77.7 °F - 60.3 °F 55% 29.98 in 10.0 mi Calm Calm - N/A   Clear
9:15 PM 76.3 °F - 62.4 °F 62% 29.98 in 10.0 mi Calm Calm - N/A   Clear
9:35 PM 75.6 °F - 60.4 °F 59% 29.98 in 10.0 mi Calm Calm - N/A   Clear
9:55 PM 74.8 °F - 61.9 °F 64% 29.98 in 10.0 mi Calm Calm - N/A   Clear
10:15 PM 74.8 °F - 60.8 °F 62% 29.99 in 10.0 mi Calm Calm - N/A   Clear
10:35 PM 73.9 °F - 63.7 °F 70% 30.00 in 10.0 mi Calm Calm - N/A   Clear
10:55 PM 73.8 °F - 62.6 °F 68% 30.00 in 10.0 mi Calm Calm - N/A   Clear
11:15 PM 73.4 °F - 63.1 °F 70% 30.00 in 10.0 mi Calm Calm - N/A   Clear
11:35 PM 72.9 °F - 62.4 °F 70% 30.00 in 10.0 mi ESE 4.6 mph - N/A   Clear
11:55 PM 74.3 °F - 60.8 °F 63% 30.00 in 10.0 mi Calm Calm - N/A   Clear